{"data":{"norad_id":57404,"epoch":"2026-09-20T15:11:03.863040Z","epoch_age_seconds":112691,"freshness":"FRESH","line1":"1 57404U 23102A   26263.63268360 -.00000346  00000+0 -30451-5 0  9993","line2":"2 57404  43.0041 227.6743 0001492 259.2567 100.8117 15.27570679176053","mean_motion":15.27570679,"eccentricity":0.0001492,"inclination_deg":43.0041,"raan_deg":227.6743,"arg_perigee_deg":259.2567,"mean_anomaly_deg":100.8117,"bstar":-3.0451e-6,"rev_number":17605,"period_min":94.267323914771,"perigee_km":482.053313479,"apogee_km":484.10069973857,"semimajor_km":6861.2140066088,"source":"CELESTRAK","updated_at":"2026-09-21T09:00:33.622878Z"}}